Home > Time Zones > World Clock > Weather > France > Metz > Past weeks

Flag for France Weather past 2 weeks in Metz, France

Now
55 °F

Low clouds.


Feels Like: 55 °F
Forecast: 49 / 68 °F
Wind: 1 mph from North

Location: Metz-Nancy-Lorraine

Current Time: Sep 2, 2015 at 12:42:47 PM

Latest Report: Sep 2, 2015 at 12:00 PM


Visibility: 4 mi

Pressure: 30.07 "Hg

Humidity: 100%

Dew point: 55 °F

Location of MetzLocation

Historic Weather in Metz — Graph

°F

Metz temperature yesterday

Maximum temperature yesterday: 73 °F (at 12:00 AM)
Minimum temperature yesterday: 57 °F (at 11:00 PM)
Average temperature yesterday: 65 °F

Past Weeks' High & Low Weather Summary

 TemperatureHumidityPressure
High93 °F (Aug 30, 4:00 PM)100% (Aug 28, 7:30 AM)30.24 "Hg (Aug 28, 7:30 AM)
Low48 °F (Aug 19, 7:00 AM)24% (Aug 30, 7:30 PM)29.65 "Hg (Aug 24, 7:00 AM)
Average68 °F62%30.01 "Hg
* Reported Aug 18 11:00 AM — Sep 2 11:30 AM, Metz, Weather by CustomWeather, © 2015

Note: Actual official high and low records may vary slightly from our data, if they occured in-between our weather recording intervals... More about our weather records

Advertising

Metz weather history for previous 24 hours

 ConditionsComfort  
Time TempWeatherWind HumidityBarometerVisibility
11:30 AM
Wed, Sep 2
55 °FFog.2 mph94%30.07 "Hg3 mi
11:00 AM55 °FFog.2 mph94%30.07 "Hg1 mi
10:30 AM54 °FFog.3 mph100%30.07 "Hg1 mi
10:00 AM54 °FFog.2 mph100%30.07 "Hg0 mi
9:30 AM54 °FFog.2 mph94%30.07 "Hg0 mi
9:00 AM52 °FFog.2 mph100%30.07 "Hg1 mi
8:30 AM52 °FFog.3 mph100%30.07 "Hg1 mi
8:00 AM52 °FFog.2 mph100%30.07 "Hg0 mi
7:30 AM52 °FFog.2 mph94%30.07 "Hg0 mi
7:00 AM52 °FFog.No wind94%30.07 "Hg0 mi
6:00 AM52 °FFog.2 mph100%30.07 "Hg0 mi
5:30 AM52 °FFog.2 mph94%30.07 "Hg0 mi
5:00 AM52 °FFog.2 mph100%30.07 "Hg0 mi
4:30 AM54 °FFog.2 mph94%30.07 "Hg1 mi
4:00 AM52 °FFog.1 mph100%30.07 "Hg1 mi
3:30 AM54 °FDense fog.2 mph100%30.09 "Hg2 mi
3:00 AM54 °FFog.2 mph100%30.09 "Hg1 mi
2:30 AM55 °FFog.3 mph94%30.09 "Hg1 mi
2:00 AM55 °FLight fog.2 mph94%30.09 "Hg2 mi
1:30 AM55 °FLight fog.2 mph94%30.09 "Hg2 mi
1:00 AM57 °FClear.3 mph94%30.09 "Hg4 mi
11:30 PM
Tue, Sep 1
57 °FClear.2 mph94%30.09 "Hg10 mi
11:00 PM57 °FClear.3 mph94%30.07 "Hg10 mi
10:30 PM59 °FClear.2 mph88%30.07 "Hg10 mi
10:00 PM59 °FClear.3 mph88%30.07 "Hg10 mi
9:30 PM59 °FCool.5 mph88%30.07 "HgN/A
9:00 PM59 °FLight rain. Cloudy.5 mph88%30.07 "HgN/A
8:30 PM61 °FHeavy rain. Broken clouds.12 mph83%30.07 "HgN/A
8:00 PM64 °FPassing clouds.3 mph73%30.04 "HgN/A
7:30 PM66 °FPassing clouds.5 mph68%30.04 "HgN/A
7:00 PM66 °FSunny.8 mph68%30.04 "Hg10 mi
6:30 PM68 °FPassing clouds.10 mph64%30.01 "HgN/A
6:00 PM66 °FScattered clouds.8 mph73%30.01 "HgN/A
5:30 PM64 °FBroken clouds.13 mph78%30.01 "HgN/A
5:00 PM64 °FBroken clouds.15 mph78%30.01 "HgN/A
4:30 PM64 °FPartly sunny.13 mph78%29.98 "HgN/A
4:00 PM64 °FMild.15 mph83%29.98 "HgN/A
3:30 PM63 °FMostly cloudy.13 mph88%29.98 "HgN/A
3:00 PM63 °FLight rain. Mostly cloudy.16 mph83%29.98 "HgN/A
2:30 PM63 °FLight rain. Mostly cloudy.14 mph94%29.95 "HgN/A
2:00 PM63 °FRain. Mostly cloudy.13 mph94%29.95 "Hg4 mi
1:30 PM63 °FLight rain. Partly sunny.13 mph94%29.92 "HgN/A
1:00 PM63 °FRain. Mostly cloudy.13 mph94%29.92 "Hg5 mi
12:30 PM63 °FLight rain. Fog.10 mph94%29.89 "Hg3 mi
12:00 PM64 °FRain. Fog.8 mph94%29.89 "Hg2 mi
Weather by CustomWeather, © 2015

See weather overviewHow to use our weather pages